User: anonymous   Login
Location: Unspecified
(34.1750°S, 150.8048°E)
Time: 05:40:32
(UTC+11:00)
Language:

ISS - Orbit

View from above orbital plane
View from above orbital plane
View from above satellite
View from above satellite

Ground track
Ground track

The orbit data is extracted from the following two-line orbital elements,

1 25544U 98067A   25340.86543100  .00013750  00000-0  25394-3 0  9993
2 25544  51.6304 171.5636 0003497 213.1314 146.9456 15.49374779541942
Epoch (UTC): 06 December 2025 20:46:13
Eccentricity: 0.0003497
inclination: 51.6304°
perigee height: 416 km
apogee height: 421 km
right ascension of ascending node: 171.5636°
argument of perigee: 213.1314°
revolutions per day: 15.49374779
mean anomaly at epoch: 146.9456°
orbit number at epoch: 54194

The dashed part of the orbit path shows where the satellite is in the earth's shadow,  

DLR